Temp
64 65 64 64 63 63 62 62 61 61 60 60 59 59 59 59 58 57 58 59 57 57 58 57 58 58 60 58 58 60 58 56 56 55 55 55 53 54 56 54 53 52
64 65 65 64 63 63 63 63 63 62 61 61 61 60 60 60 58 59 58 58 58 57 57 58 58 57 58 59 58 58 57 57 56 60 56 55 54 53 53 54 54 53
64 64 64 63 63 63 63 63 64 63 63 62 61 62 61 61 59 59 59 58 57 57 57 57 59 58 57 57 57 57 56 55 56 56 55 55 54 53 54 54 54 53
63 64 64 64 64 64 63 63 63 63 63 61 62 63 63 62 61 60 60 61 57 57 57 58 58 57 57 57 57 57 56 55 56 56 55 55 55 53 54 53 53 53
64 63 64 64 64 65 63 64 63 62 63 63 62 62 62 61 60 60 60 58 58 57 57 57 58 57 57 56 56 56 56 56 56 56 55 55 56 55 56 55 55 55
64 65 65 65 64 64 63 64 64 63 63 63 63 63 62 62 61 61 60 59 58 58 58 57 57 57 56 57 55 56 55 57 56 56 56 55 56 56 59 54 55 56
65 64 63 63 63 65 63 63 64 64 63 63 63 62 62 61 62 61 61 60 59 59 59 56 56 56 56 56 55 56 55 55 56 56 55 54 55 56 58 55 56 56
63 62 63 63 62 63 62 61 60 60 60 61 60 60 63 62 62 62 61 61 60 60 59 58 58 56 56 56 55 56 55 57 57 56 54 55 54 54 55 57 54 54
64 63 63 62 62 61 60 60 60 60 61 60 61 61 61 61 62 62 62 62 61 60 60 60 59 58 57 57 56 56 57 55 57 55 54 54 54 55 55 55 56 56
63 62 63 62 61 60 60 58 57 57 60 60 60 59 61 61 61 61 62 62 61 60 60 61 60 59 59 59 59 57 57 56 56 56 55 54 55 55 55 55 54 53
61 62 61 60 59 58 57 58 58 57 58 59 59 59 61 60 62 62 60 60 60 60 61 61 61 61 60 60 59 58 58 57 57 57 56 54 55 56 56 55 54 54
60 60 60 60 59 58 57 57 57 57 57 58 59 59 57 59 59 60 60 60 60 60 61 61 62 61 61 61 61 60 58 58 58 57 57 55 55 56 55 54 55 54
57 57 57 57 58 58 58 59 58 58 58 58 59 59 58 58 58 58 58 59 60 61 61 62 62 62 61 61 61 61 59 58 58 57 57 56 56 56 55 55 54 53
56 57 58 57 57 57 57 57 58 58 58 57 57 57 57 57 57 58 58 59 59 60 60 61 61 61 62 62 62 61 59 58 58 57 57 56 55 55 54 54 54 54
56 57 57 57 57 56 56 56 56 56 57 57 57 56 57 57 57 58 58 58 59 59 60 61 61 61 62 62 61 61 60 59 58 57 57 56 54 54 53 53 53 53
56 56 56 56 56 55 55 55 55 54 55 56 57 57 56 56 55 55 55 57 58 58 59 60 60 61 60 55 56 61 59 60 58 57 56 55 55 53 52 53 53 52
55 56 56 56 56 55 55 58 58 58 57 57 57 57 58 57 56 56 56 57 58 59 59 59 60 60 54 50 49 53 59 59 58 56 56 55 54 54 53 53 52 53
55 55 54 55 55 56 56 57 57 57 56 57 57 58 58 57 57 56 56 56 57 57 57 58 59 55 50 48 47 46 51 58 58 57 56 55 55 55 54 54 55 55
54 54 54 55 55 54 54 56 56 55 56 55 56 59 58 57 58 57 57 56 56 55 54 53 57 53 48 47 46 45 46 53 57 57 56 55 56 56 55 55 55 54
54 52 53 53 54 54 56 56 57 58 57 56 56 56 56 57 57 57 56 54 51 49 48 47 46 42 44 45 45 44 45 51 55 55 54 54 55 55 55 56 54 53
54 53 52 53 53 53 54 55 55 53 53 54 56 56 56 54 56 56 55 54 51 48 45 44 44 41 41 42 43 44 46 48 54 53 54 53 52 52 54 53 51 51
54 52 52 52 53 52 52 53 52 51 54 52 53 53 54 54 53 54 52 52 50 48 46 42 41 41 41 43 44 45 47 51 51 50 50 50 48 51 51 50 51 51
54 54 52 51 51 51 51 51 51 53 52 51 54 51 53 54 52 51 51 50 48 47 45 42 40 41 41 43 43 44 46 50 50 48 49 49 50 50 50 51 52 53
54 53 52 52 50 52 51 50 51 52 52 50 54 51 51 49 51 51 48 50 48 46 45 43 40 40 41 42 43 43 46 48 47 48 47 47 48 51 52 51 53 55
53 52 51 51 52 52 51 52 52 52 50 50 50 50 49 48 49 49 47 46 46 46 48 44 41 41 41 41 42 43 46 46 46 46 45 46 48 50 51 52 49 43
54 51 51 53 52 50 49 50 49 52 52 51 49 49 51 49 48 48 46 44 44 45 46 44 42 39 40 41 42 42 44 46 45 45 45 46 49 50 50 49 44 43
MSLP
1015.62 1015.58 1015.74 1015.94 1016.14 1016.34 1016.58 1016.86 1017.02 1017.26 1017.46 1017.62 1017.82 1018.06 1018.14 1018.22 1018.26 1018.42 1018.58 1018.66 1018.74 1018.82 1018.90 1018.94 1019.02 1019.14 1019.26 1019.42 1019.54 1019.66 1019.82 1019.94 1019.98 1020.02 1020.06 1020.14 1020.18 1020.18 1020.22 1020.22 1020.26 1020.34
1015.66 1015.50 1015.62 1015.78 1015.98 1016.18 1016.38 1016.46 1016.70 1016.94 1017.26 1017.42 1017.62 1017.90 1018.06 1018.14 1018.38 1018.50 1018.66 1018.78 1018.86 1018.98 1019.02 1019.06 1019.10 1019.22 1019.42 1019.54 1019.66 1019.82 1019.94 1020.02 1020.14 1020.14 1020.22 1020.30 1020.30 1020.34 1020.38 1020.38 1020.42 1020.50
1015.70 1015.54 1015.54 1015.66 1015.86 1016.06 1016.18 1016.30 1016.38 1016.62 1016.94 1017.22 1017.46 1017.66 1017.90 1018.02 1018.34 1018.46 1018.62 1018.78 1018.98 1019.10 1019.18 1019.18 1019.22 1019.30 1019.42 1019.58 1019.70 1019.90 1020.06 1020.14 1020.26 1020.34 1020.38 1020.46 1020.46 1020.50 1020.54 1020.46 1020.46 1020.54
1015.54 1015.38 1015.38 1015.46 1015.54 1015.78 1015.98 1016.14 1016.22 1016.42 1016.70 1017.14 1017.34 1017.50 1017.66 1017.94 1018.18 1018.38 1018.58 1018.74 1018.98 1019.14 1019.26 1019.34 1019.38 1019.46 1019.46 1019.58 1019.74 1019.90 1019.98 1020.10 1020.22 1020.26 1020.34 1020.46 1020.54 1020.58 1020.62 1020.62 1020.62 1020.62
1015.26 1015.26 1015.26 1015.38 1015.42 1015.50 1015.82 1015.94 1016.14 1016.30 1016.50 1016.78 1017.14 1017.38 1017.62 1017.94 1018.22 1018.46 1018.66 1018.90 1019.06 1019.18 1019.30 1019.42 1019.50 1019.62 1019.62 1019.70 1019.82 1019.90 1019.98 1020.06 1020.10 1020.22 1020.34 1020.50 1020.54 1020.54 1020.62 1020.62 1020.70 1020.70
1014.94 1015.02 1015.02 1015.22 1015.38 1015.50 1015.78 1015.86 1015.98 1016.10 1016.42 1016.74 1017.06 1017.30 1017.54 1017.74 1018.02 1018.30 1018.54 1018.82 1019.02 1019.18 1019.34 1019.46 1019.58 1019.66 1019.70 1019.82 1019.94 1019.94 1020.06 1020.14 1020.14 1020.22 1020.38 1020.46 1020.54 1020.54 1020.62 1020.70 1020.74 1020.78
1014.74 1014.86 1014.98 1015.10 1015.30 1015.38 1015.62 1015.74 1015.86 1015.94 1016.18 1016.46 1016.86 1017.30 1017.50 1017.82 1018.06 1018.26 1018.46 1018.70 1018.94 1019.14 1019.30 1019.50 1019.62 1019.66 1019.74 1019.78 1019.94 1019.98 1020.06 1020.14 1020.14 1020.26 1020.42 1020.46 1020.46 1020.54 1020.58 1020.66 1020.78 1020.86
1014.42 1014.58 1014.82 1015.02 1015.22 1015.42 1015.70 1015.90 1016.18 1016.30 1016.46 1016.78 1017.10 1017.26 1017.26 1017.62 1017.94 1018.18 1018.42 1018.66 1018.90 1019.10 1019.30 1019.46 1019.54 1019.66 1019.70 1019.74 1019.94 1020.06 1020.06 1020.14 1020.14 1020.22 1020.38 1020.42 1020.46 1020.50 1020.58 1020.58 1020.74 1020.86
1014.06 1014.34 1014.62 1014.94 1015.10 1015.34 1015.74 1016.14 1016.30 1016.26 1016.14 1016.38 1016.66 1016.90 1017.18 1017.30 1017.54 1017.94 1018.22 1018.42 1018.70 1018.94 1019.10 1019.26 1019.38 1019.54 1019.66 1019.74 1019.90 1019.98 1020.02 1020.14 1020.18 1020.18 1020.30 1020.38 1020.46 1020.42 1020.50 1020.54 1020.62 1020.74
1014.14 1014.22 1014.46 1014.86 1015.30 1015.58 1015.86 1016.18 1016.42 1016.42 1016.22 1016.22 1016.46 1016.62 1016.90 1017.26 1017.62 1017.82 1018.02 1018.26 1018.54 1018.78 1018.90 1018.98 1019.14 1019.30 1019.46 1019.58 1019.70 1019.86 1019.94 1020.02 1020.10 1020.10 1020.10 1020.18 1020.26 1020.30 1020.38 1020.46 1020.54 1020.66
1014.10 1014.26 1014.50 1014.82 1015.18 1015.62 1015.90 1016.06 1016.14 1016.26 1016.30 1016.26 1016.30 1016.62 1016.90 1017.10 1017.38 1017.62 1018.14 1018.46 1018.62 1018.62 1018.58 1018.66 1018.78 1018.94 1019.14 1019.30 1019.42 1019.54 1019.66 1019.74 1019.86 1019.90 1019.94 1020.06 1020.14 1020.10 1020.14 1020.30 1020.46 1020.50
1014.42 1014.22 1014.30 1014.58 1014.82 1015.18 1015.50 1015.90 1016.14 1016.30 1016.42 1016.50 1016.34 1016.54 1016.86 1017.10 1017.30 1017.38 1017.46 1017.70 1018.02 1018.38 1018.58 1018.42 1018.42 1018.58 1018.74 1018.90 1019.06 1019.22 1019.38 1019.50 1019.58 1019.66 1019.74 1019.94 1020.02 1020.02 1020.06 1020.22 1020.34 1020.42
1015.30 1015.38 1015.54 1015.38 1015.14 1015.10 1015.30 1015.46 1015.70 1016.10 1016.38 1016.54 1016.66 1016.78 1016.94 1017.14 1017.38 1017.62 1017.46 1017.34 1017.54 1017.94 1018.18 1018.30 1018.26 1018.26 1018.38 1018.54 1018.66 1018.86 1019.06 1019.22 1019.38 1019.42 1019.54 1019.70 1019.82 1019.86 1019.98 1020.14 1020.30 1020.38
1015.94 1016.14 1016.10 1015.94 1015.90 1015.74 1015.58 1015.58 1015.58 1015.66 1016.02 1016.50 1016.74 1016.90 1017.06 1017.14 1017.18 1017.14 1017.10 1017.14 1017.18 1017.34 1017.66 1017.94 1018.06 1018.06 1018.02 1018.14 1018.30 1018.50 1018.74 1018.94 1019.14 1019.26 1019.42 1019.58 1019.66 1019.74 1019.86 1019.98 1020.10 1020.26
1015.34 1015.26 1015.22 1015.26 1015.30 1015.50 1015.74 1015.86 1016.02 1016.18 1016.34 1016.42 1016.62 1016.78 1016.94 1016.90 1016.82 1016.78 1016.78 1016.98 1017.18 1017.22 1017.26 1017.46 1017.70 1017.78 1017.82 1017.86 1018.06 1018.22 1018.38 1018.58 1018.82 1019.02 1019.18 1019.38 1019.54 1019.66 1019.78 1019.90 1020.06 1020.18
1014.74 1014.78 1014.90 1015.02 1015.30 1015.46 1015.62 1015.86 1015.98 1016.26 1016.42 1016.54 1016.70 1016.78 1016.86 1016.98 1017.06 1017.02 1016.98 1016.94 1016.98 1017.02 1017.10 1017.30 1017.42 1017.42 1017.46 1017.58 1017.66 1017.82 1018.06 1018.26 1018.50 1018.70 1018.90 1019.14 1019.34 1019.54 1019.70 1019.74 1019.90 1020.06
1015.14 1015.18 1015.22 1015.34 1015.42 1015.54 1015.62 1015.62 1015.70 1015.82 1015.98 1016.10 1016.30 1016.58 1016.78 1016.94 1017.02 1016.98 1016.90 1016.94 1016.98 1017.02 1017.10 1017.22 1017.30 1017.30 1017.26 1017.42 1017.58 1017.66 1017.78 1017.98 1018.22 1018.50 1018.66 1018.86 1019.06 1019.26 1019.46 1019.62 1019.74 1019.94
1015.34 1015.38 1015.58 1015.58 1015.66 1015.66 1015.74 1015.82 1015.90 1016.02 1016.06 1016.14 1016.26 1016.38 1016.46 1016.54 1016.70 1016.66 1016.70 1016.82 1016.90 1016.94 1017.02 1017.02 1017.02 1016.94 1017.02 1017.18 1017.38 1017.54 1017.62 1017.74 1017.94 1018.18 1018.46 1018.66 1018.86 1019.02 1019.18 1019.34 1019.54 1019.78
1015.26 1015.38 1015.42 1015.46 1015.62 1015.70 1015.78 1015.86 1015.98 1016.06 1016.10 1016.14 1016.26 1016.14 1016.10 1016.30 1016.34 1016.46 1016.46 1016.50 1016.62 1016.70 1016.82 1016.82 1016.82 1016.82 1017.02 1017.10 1017.22 1017.38 1017.54 1017.62 1017.78 1017.82 1018.02 1018.26 1018.46 1018.66 1018.98 1019.22 1019.42 1019.62
1015.38 1015.46 1015.54 1015.58 1015.58 1015.62 1015.66 1015.74 1015.82 1015.86 1015.90 1015.90 1015.82 1015.90 1016.02 1016.10 1016.18 1016.26 1016.38 1016.50 1016.54 1016.70 1016.86 1017.02 1017.14 1017.34 1017.26 1017.30 1017.38 1017.46 1017.46 1017.46 1017.58 1017.70 1017.98 1018.34 1018.54 1018.78 1019.02 1019.22 1019.42 1019.58
1015.46 1015.50 1015.62 1015.70 1015.70 1015.78 1015.82 1015.86 1015.86 1015.90 1015.86 1015.90 1015.86 1015.82 1015.90 1016.02 1016.06 1016.02 1016.06 1016.18 1016.50 1016.82 1016.98 1017.22 1017.62 1017.66 1017.42 1017.46 1017.58 1017.66 1017.70 1017.78 1017.98 1018.22 1018.26 1018.50 1018.94 1018.98 1019.22 1019.38 1019.58 1019.70
1015.42 1015.54 1015.62 1015.70 1015.74 1015.78 1015.86 1015.86 1015.90 1015.90 1015.90 1015.86 1015.86 1015.86 1015.82 1015.90 1016.06 1016.10 1016.10 1016.18 1016.54 1016.78 1017.02 1017.38 1018.02 1017.94 1017.62 1017.58 1017.58 1017.58 1017.70 1018.06 1018.26 1018.46 1018.70 1019.02 1019.38 1019.46 1019.54 1019.58 1019.58 1019.70
1015.30 1015.38 1015.54 1015.62 1015.70 1015.74 1015.78 1015.78 1015.78 1015.78 1015.78 1015.82 1015.86 1015.86 1015.82 1015.82 1015.86 1015.94 1016.02 1016.42 1016.74 1016.90 1017.10 1017.78 1018.10 1018.14 1017.90 1017.78 1017.74 1017.74 1017.86 1018.22 1018.42 1018.66 1018.90 1019.02 1019.34 1019.38 1019.50 1019.50 1019.62 1019.70
1014.98 1015.14 1015.34 1015.38 1015.58 1015.62 1015.70 1015.74 1015.70 1015.66 1015.66 1015.70 1015.78 1015.82 1015.86 1015.82 1015.78 1015.90 1016.14 1016.38 1016.66 1017.10 1017.38 1017.66 1018.22 1018.46 1018.30 1018.18 1018.10 1018.10 1018.10 1018.38 1018.70 1018.86 1019.06 1019.22 1019.26 1019.30 1019.30 1019.42 1019.42 1019.62
1014.94 1014.98 1015.14 1015.30 1015.38 1015.46 1015.50 1015.58 1015.62 1015.66 1015.66 1015.66 1015.70 1015.74 1015.70 1015.70 1015.78 1016.06 1016.54 1016.82 1016.90 1017.18 1017.50 1017.62 1018.30 1018.58 1018.54 1018.30 1018.30 1018.30 1018.38 1018.62 1018.78 1018.98 1019.30 1019.58 1019.58 1019.54 1019.54 1019.50 1020.18 1020.46
1014.94 1014.94 1014.98 1015.06 1015.22 1015.26 1015.38 1015.46 1015.54 1015.62 1015.66 1015.66 1015.66 1015.70 1015.66 1015.66 1015.86 1016.18 1016.62 1017.06 1017.34 1017.46 1017.70 1017.90 1018.22 1018.66 1018.70 1018.46 1018.42 1018.50 1018.58 1018.74 1018.98 1019.10 1019.46 1019.66 1019.70 1019.78 1019.90 1020.26 1020.78 1021.18
Wind_Speed
7 8 9 9 9 8 8 8 8 8 7 7 7 6 6 4 4 4 5 5 4 4 4 4 4 4 4 4 4 5 4 4 4 4 4 4 4 4 4 4 4 3
7 9 8 8 8 7 7 8 9 9 9 8 7 7 6 5 4 5 5 5 4 4 4 3 2 4 5 5 5 5 4 4 4 3 4 4 3 4 3 2 1 2
6 8 9 9 9 8 8 8 9 9 9 8 8 8 7 6 6 5 6 5 4 4 3 2 2 2 4 5 5 4 4 4 3 3 3 3 3 3 1 1 2 3
6 7 8 8 9 9 8 8 7 8 8 8 9 9 8 6 7 7 6 5 5 4 3 2 2 1 3 4 4 4 4 3 4 4 3 2 2 3 2 3 2 3
7 6 7 6 7 7 6 9 8 7 10 10 9 8 8 7 7 7 6 4 4 4 4 3 1 1 2 3 4 4 3 5 4 4 3 2 1 3 1 2 2 2
5 6 6 6 7 7 6 8 8 7 9 10 10 8 8 8 8 8 7 6 5 5 4 3 2 2 3 3 3 4 3 4 4 4 4 4 3 2 2 2 1 1
7 6 5 5 6 8 7 8 7 7 8 9 9 8 8 8 8 8 7 6 6 6 5 4 4 3 3 4 3 4 3 4 4 3 4 3 4 2 1 3 2 1
6 5 6 6 7 7 6 5 6 6 7 7 5 4 8 9 8 7 6 6 7 6 6 5 5 4 4 4 4 4 4 3 4 4 4 4 4 4 3 3 2 1
7 7 6 6 7 6 7 7 7 8 9 10 8 6 2 4 9 8 8 8 7 7 7 7 6 5 5 4 4 5 5 4 5 5 4 4 5 5 4 3 2 1
5 5 7 7 7 6 8 6 5 4 5 8 8 6 7 3 2 5 8 9 7 6 7 8 7 7 6 6 6 6 6 5 5 6 5 5 6 6 5 5 4 3
8 8 9 8 8 8 8 7 6 4 3 6 6 6 5 5 6 7 5 2 1 4 8 9 9 8 8 8 7 7 7 7 7 6 5 4 5 6 6 6 5 5
4 7 9 9 9 8 8 7 6 4 3 1 3 5 3 2 3 4 6 4 2 3 5 7 9 9 9 9 9 8 7 7 7 7 6 5 5 5 4 5 6 5
9 10 9 4 3 7 8 8 8 7 5 3 1 3 3 4 4 3 3 3 2 3 4 6 7 9 9 10 10 9 8 8 7 7 6 5 5 5 4 5 5 4
4 1 2 2 2 3 4 5 5 6 6 4 3 3 3 3 4 5 6 6 6 6 5 4 5 7 9 9 9 9 8 7 7 7 6 5 5 4 5 5 4 4
7 5 5 4 4 4 4 3 3 3 4 5 5 6 5 5 5 5 4 3 5 6 7 7 6 6 6 7 8 8 8 8 8 8 7 6 5 5 4 4 4 4
4 3 4 4 4 4 4 4 4 3 4 4 4 5 4 3 2 3 4 5 4 5 4 4 6 5 6 10 9 8 8 7 7 8 7 7 7 6 4 5 5 4
1 1 1 2 3 3 4 5 5 5 5 4 3 3 5 6 6 6 6 5 6 6 6 5 5 5 10 11 10 11 8 7 8 7 7 8 7 7 7 6 4 5
5 4 4 4 4 4 3 2 2 3 3 4 5 6 6 4 5 6 6 5 5 5 5 6 6 8 12 12 12 12 9 7 7 8 7 7 7 8 7 7 6 5
4 4 4 3 2 4 3 2 3 4 6 5 6 7 5 6 7 7 6 5 4 4 4 4 5 6 8 11 11 11 11 9 7 9 9 9 8 7 6 6 6 5
3 4 4 4 3 2 1 0 0 1 1 3 2 3 4 5 6 7 6 4 3 3 2 1 1 5 5 4 7 8 11 10 6 6 6 5 5 5 5 5 5 5
3 4 4 4 3 3 1 0 0 2 2 1 2 2 2 3 4 4 4 4 5 4 3 2 3 5 8 8 9 10 10 7 5 5 5 7 5 3 3 3 3 4
5 4 5 4 3 3 3 1 1 2 1 2 1 2 1 1 1 2 4 4 5 6 5 3 3 7 10 12 12 12 11 6 5 5 6 6 7 5 3 3 3 2
6 6 5 5 4 4 3 3 2 0 1 0 0 2 2 3 3 2 3 4 5 4 6 4 3 4 8 11 11 12 10 6 6 7 5 5 5 2 2 1 0 0
6 6 5 4 4 3 2 2 1 0 1 1 1 2 2 3 4 1 3 6 7 5 6 7 4 3 7 9 10 11 9 7 6 6 4 4 2 1 1 1 2 6
3 4 4 4 2 1 1 1 1 1 2 1 2 3 3 3 2 5 4 3 5 7 9 9 6 4 7 10 11 10 8 6 6 6 6 4 4 4 3 1 6 7
1 3 4 2 2 3 3 3 2 1 1 3 4 3 4 2 3 5 6 4 4 6 7 8 8 5 5 10 10 11 10 7 6 6 5 5 4 4 4 5 5 5
Wind_Direction
166 153 154 154 157 159 158 148 150 145 146 144 141 145 140 154 137 104 112 108 108 96 86 77 72 80 94 95 97 91 91 98 95 92 88 86 81 86 75 66 57 86
175 157 155 153 155 159 164 153 154 150 154 153 151 146 146 141 129 120 116 112 105 117 110 93 82 84 93 99 97 95 92 95 111 115 102 96 93 84 86 84 71 90
175 161 161 159 160 166 168 162 156 153 154 157 147 146 151 149 138 135 129 123 118 116 123 130 128 90 106 110 110 107 111 113 110 84 114 131 124 105 143 100 33 72
191 168 163 163 164 167 163 161 162 149 146 145 154 156 154 151 141 141 139 137 135 137 146 155 160 142 133 124 121 134 140 142 140 116 93 73 89 97 89 65 44 47
185 178 168 162 172 169 157 161 163 149 151 154 147 148 146 139 139 141 141 141 142 153 150 166 168 131 150 132 134 145 148 141 136 121 124 113 114 109 100 84 50 22
178 179 182 168 173 168 159 161 162 153 139 143 151 150 154 150 148 150 155 152 160 155 163 159 167 171 161 160 126 161 143 143 164 139 147 146 137 131 121 115 89 25
173 169 175 158 162 171 157 162 160 156 145 144 140 149 150 150 151 158 159 159 161 164 163 171 175 192 185 174 145 181 157 168 179 159 160 169 154 180 163 143 163 232
146 145 142 133 129 135 122 108 84 72 84 75 95 127 157 154 160 159 163 161 163 167 168 173 182 190 196 178 168 186 188 184 186 188 173 183 161 186 183 152 128 96
131 124 112 109 118 116 99 94 104 108 111 114 118 109 92 172 157 162 168 171 168 173 176 178 184 189 193 188 189 186 198 196 193 195 182 185 176 188 183 161 136 167
103 99 95 94 90 92 95 94 82 85 110 119 129 122 106 100 140 166 173 176 174 178 181 184 188 186 190 193 197 192 199 197 195 197 197 183 185 183 176 173 178 175
110 104 103 102 106 105 107 114 117 120 117 127 121 103 115 108 103 105 98 66 243 205 189 190 190 188 192 196 200 196 196 193 192 195 199 190 188 188 174 178 183 182
83 117 125 130 126 120 120 118 116 111 106 65 123 129 133 112 121 122 129 149 167 219 236 206 192 191 193 196 199 197 195 195 191 191 193 188 193 193 183 175 185 191
17 16 12 27 85 129 127 122 123 130 129 159 130 117 137 144 146 146 155 144 182 250 234 222 208 197 196 198 198 195 192 192 192 190 191 193 190 190 178 160 158 163
90 137 128 148 106 100 119 136 143 147 164 154 127 136 166 175 191 204 203 191 207 205 222 233 226 212 207 199 195 194 191 189 187 186 189 193 188 180 162 164 158 151
160 157 143 137 125 121 111 106 124 153 159 166 167 181 195 205 211 210 218 210 203 207 215 219 224 225 215 197 194 197 187 187 184 182 181 179 171 165 152 146 147 145
133 126 122 120 128 140 145 146 155 168 178 186 185 183 191 203 210 240 231 230 241 246 241 230 223 225 219 206 193 185 186 184 181 179 174 167 161 151 139 144 155 139
96 133 124 131 161 154 147 162 169 166 180 206 215 206 203 196 193 210 223 225 228 241 246 230 220 219 220 217 204 188 178 179 177 177 169 164 158 158 164 164 161 146
159 152 137 165 155 183 169 195 161 195 203 205 199 207 214 201 206 221 228 226 218 221 220 220 224 226 220 216 206 207 200 181 176 165 164 162 160 166 172 170 170 151
143 134 143 136 118 130 141 144 166 178 193 193 208 217 201 192 207 215 233 252 252 250 256 262 252 272 265 235 214 207 203 177 169 167 167 170 170 164 156 158 165 165
119 130 134 145 124 91 72 32 63 37 248 250 221 178 190 202 187 186 190 180 143 123 122 24 20 351 341 273 226 203 186 168 161 153 136 132 140 140 138 147 154 170
155 128 122 124 126 132 137 131 305 298 315 268 204 207 176 183 203 187 192 162 126 124 106 57 5 35 87 96 110 114 104 99 107 102 113 110 100 103 125 131 118 120
169 160 148 157 169 160 151 181 186 188 214 280 237 213 212 150 195 208 224 178 139 138 123 98 46 64 103 113 113 106 97 83 80 83 86 77 60 74 98 108 113 116
165 158 161 168 165 158 177 196 186 279 299 234 192 239 215 236 244 196 197 132 137 137 124 110 93 86 113 116 110 100 93 90 96 93 94 102 135 122 110 112 84 358
156 149 161 169 150 166 192 212 196 157 281 231 217 241 238 225 230 148 94 137 141 141 139 130 116 92 102 95 89 85 92 97 98 97 84 85 76 70 65 41 329 342
156 139 147 142 141 182 176 166 182 207 245 317 290 248 228 207 144 102 101 107 133 135 135 128 129 110 106 102 97 98 95 95 94 88 75 52 49 22 354 294 71 58
76 135 147 150 181 215 188 190 198 153 269 290 296 269 257 259 103 122 121 121 119 129 137 141 133 129 126 111 104 101 103 99 89 89 84 71 60 55 26 47 71 77